Regional Weather Roundup
Issued by NWS

Home | Current Version | Previous Version | Text Only | Print | Product List | Glossary On
Versions: 1 2 3 4 5 6 7 8 9 10 11 12 13 14 15 16 17 18 19 20 21 22 23 24 25 26 27 28 29 30 31 32 33 34 35 36 37 38 39 40 41 42 43 44 45 46 47 48 49 50
000
ASUS43 KTOP 021708
RWRKS

WEATHER ROUNDUP FOR KANSAS
NATIONAL WEATHER SERVICE GOODLAND KS
1100 AM CST MON MAR 02 2015

NOTE:  "FAIR" INDICATES FEW OR NO CLOUDS BELOW 12,000 FEET WITH NO
SIGNIFICANT WEATHER AND/OR OBSTRUCTIONS TO VISIBILITY.

KSZ001>006-013>018-027>032-041>047-021800-
NORTHWEST KANSAS

CITY           SKY/WX    TMP DP  RH WIND       PRES   REMARKS
GOODLAND       CLOUDY    27  21  78 S25G35    30.12F WCI  12
HAYS           CLOUDY    32  16  51 S20       30.32F WCI  20
HILL CITY      CLOUDY    33  19  56 S18G26    30.27F WCI  22
RUSSELL        PTSUNNY   33  20  58 S20       30.32F WCI  21
$$

KSZ061>065-074>080-084>089-021800-
SOUTHWEST KANSAS

CITY           SKY/WX    TMP DP  RH WIND       PRES   REMARKS
DODGE CITY     CLOUDY    27  21  78 S22       30.28F HAZE    WCI  13
ELKHART          N/A     29  22  75 S17         N/A  WCI  17
GARDEN CITY    CLOUDY    27  22  81 S17G25    30.23F WCI  14
GREAT BEND     CLOUDY    30  19  64 S18       30.35S WCI  18
LIBERAL        CLOUDY    28  23  80 S17       30.26F WCI  16
PRATT          CLOUDY    30  21  69 S14       30.36S WCI  20
$$

KSZ066>073-081>083-090>101-021800-
SOUTHEAST KANSAS

CITY           SKY/WX    TMP DP  RH WIND       PRES   REMARKS
CHANUTE        PTSUNNY   34  22  61 E12       30.43F WCI  25
COFFEYVILLE    PTSUNNY   35  21  56 E12G22    30.41F WCI  27
HUTCHINSON     CLOUDY    33  21  61 SE18      30.37F WCI  22
MEDICINE LODGE   N/A     30  22  72 S9        30.38F
NEWTON         CLOUDY    30  19  64 SE10      30.39F WCI  21
PARSONS        CLOUDY    35  21  56 E9        30.42F
WICHITA INTL   CLOUDY    32  19  58 E16       30.38F WCI  21
WICHITA JABRA  CLOUDY    31  22  69 SE9       30.39F
WICHITA MCCONL CLOUDY    32  22  66 E10       30.38F WCI  23
WINFIELD       PTSUNNY   33  19  56 E13       30.39F WCI  24
$$

KSZ007>012-019>026-033>040-048>060-102>105-021800-
NORTHEAST KANSAS

CITY           SKY/WX    TMP DP  RH WIND       PRES   REMARKS
CONCORDIA        N/A    N/A N/A N/A MISG        N/A
EMPORIA        PTSUNNY   33  23  66 SE16G22   30.40F WCI  23
LAWRENCE       MOSUNNY   35  24  64 SE12      30.47F WCI  27
MANHATTAN      PTSUNNY   36  23  59 SE10      30.42F WCI  28
MARYSVILLE     MOSUNNY   36  23  60 S12       30.40F WCI  27
OLATHE IND     MOSUNNY   33  23  66 SE13      30.47F WCI  24
OLATHE EXE     MOSUNNY   34  22  61 SE10      30.46S WCI  26
SALINA         PTSUNNY   36  20  52 S20       30.38F WCI  25
TOPEKA BILLARD MOSUNNY   35  23  61 SE12      30.46F WCI  27
TOPEKA FORBES  MOSUNNY   35  22  58 SE15G21   30.43F WCI  25
$$


USA.gov is the U.S. government's official web portal to all federal, state and local government web resources and services.